Volver al catálogo

TITAN 34D IUS R/B(2)

ActivoGEO
NORAD 13643·ROCKET BODY·🇺🇸 United States

Lanzado Oct 30, 1982 desde Cape Canaveral Space Force Station

Loading…

TLE

ActualizadoSource: Space-Track

Época: Sep 14, 2026, 19:09 UTC

1 13643U 82106D   26257.79806771  .00000085  00000-0  00000+0 0  9993
2 13643   9.1950 309.5531 0039300  70.4065 307.5105  0.99380136120650

Sigue TITAN 34D IUS R/B(2) en tiempo real con AllMySat

Download on the App Store